GFSNIL_sfc_dewp_273.txt.gz
Dewpoint
73 72 71 70 69 68 64 68 67 68 69 69 69 70 71 71 71 70 70 70 70 70
71 71 69 67 65 64 66 65 68 68 68 68 69 69 69 70 70 70 70 70 70 69
70 69 67 65 64 66 66 66 68 69 68 68 68 68 68 68 70 69 70 70 69 69
70 64 64 62 64 65 66 68 67 68 67 67 67 67 68 67 65 65 67 68 68 68
66 64 61 63 66 66 68 68 68 67 67 67 67 67 64 63 64 64 64 65 66 67
62 64 67 68 70 69 69 69 67 68 67 67 66 65 64 63 62 62 62 63 65 65
65 69 70 70 70 70 70 69 69 67 67 67 67 64 64 62 61 61 61 62 62 63
67 69 69 70 69 70 69 70 69 68 67 67 67 61 60 61 62 62 62 62 63 61
68 69 69 69 69 70 69 68 68 67 67 67 64 62 62 62 61 63 62 62 62 60
68 68 68 69 68 68 68 68 67 65 62 62 58 61 62 64 61 62 61 60 59 59
68 68 68 69 67 66 65 64 62 60 61 54 53 56 57 59 55 53 53 54 56 56
66 67 67 66 64 62 60 60 59 60 59 52 51 53 52 52 50 48 48 51 54 54
66 64 62 61 61 61 61 59 61 59 54 53 49 52 51 47 44 44 46 48 48 53
59 61 60 59 60 60 60 56 56 55 57 55 52 50 49 49 44 44 45 45 45 46

GFSNIL_sfc_dewp_276.txt.gz
Dewpoint
72 70 69 68 64 64 65 66 66 67 67 67 67 68 68 69 69 70 69 69 69 70
71 69 65 63 64 65 64 66 68 68 66 66 66 67 67 67 66 67 68 68 68 68
70 66 65 63 63 64 64 67 67 67 66 66 66 66 65 64 64 63 64 66 67 67
67 64 64 62 64 64 67 66 66 67 66 66 66 66 62 61 62 61 61 62 64 65
67 63 63 62 65 67 66 67 66 67 67 66 66 65 62 61 61 60 60 61 62 63
63 64 66 68 68 69 69 68 68 66 66 66 66 65 63 62 61 60 61 61 61 62
67 69 69 68 69 69 69 68 68 67 66 66 66 63 61 61 61 62 62 62 62 61
68 69 68 68 68 68 68 67 67 65 64 63 61 62 61 61 61 61 62 61 60 59
68 68 68 68 67 67 66 66 63 61 57 54 55 61 62 61 60 57 55 55 56 57
67 67 68 67 66 65 64 62 59 59 53 52 52 55 57 55 52 50 50 51 53 54
66 66 66 66 64 62 60 59 58 54 52 50 50 52 51 49 46 45 46 48 49 49
64 65 63 61 59 60 59 59 59 52 50 48 48 51 51 45 43 44 45 46 46 47
64 60 59 58 58 59 58 57 53 52 51 51 48 50 50 47 44 44 44 44 44 49
59 58 58 57 57 52 51 51 54 54 52 51 46 44 49 49 45 45 44 43 44 45

GFSNIL_sfc_dewp_279.txt.gz
Dewpoint
71 71 68 67 64 64 64 65 66 66 66 65 66 66 66 64 64 65 66 66 67 68
70 68 65 63 63 63 64 66 67 66 65 65 65 65 63 62 61 61 62 63 65 66
69 66 63 63 63 64 65 67 66 65 65 65 65 64 61 61 61 60 60 61 62 62
67 65 63 62 64 64 66 66 66 66 65 65 65 64 61 61 61 60 59 60 61 61
65 64 61 62 64 67 66 66 66 66 66 66 65 64 62 61 61 60 60 60 60 60
63 61 64 66 68 68 68 67 67 66 65 65 65 62 62 61 61 61 61 60 59 60
66 67 68 68 68 68 68 67 65 63 63 61 61 61 61 61 60 60 59 59 58 60
68 68 67 67 68 67 66 64 61 57 55 55 56 58 58 57 54 52 51 52 55 56
68 67 68 67 66 66 64 61 55 53 51 50 49 53 54 51 48 47 48 49 50 51
67 67 66 65 64 63 60 58 53 51 49 48 48 51 51 50 45 45 46 47 47 48
67 66 65 62 60 59 58 55 50 49 48 48 48 50 49 48 44 44 45 46 46 47
66 64 61 58 58 57 58 52 50 49 47 46 47 49 49 46 44 44 44 44 45 47
65 60 58 58 57 56 53 51 50 50 48 46 43 49 49 46 45 43 44 44 44 48
58 58 58 55 52 54 54 53 51 50 48 45 45 44 48 48 45 44 43 43 44 45

GFSNIL_sfc_dewp_285.txt.gz
Dewpoint
75 72 71 71 67 64 63 66 70 69 69 69 70 66 67 63 62 65 65 66 67 66
74 73 72 70 68 66 69 68 70 69 68 70 69 66 67 64 64 65 65 64 65 64
74 73 72 70 69 69 70 71 70 69 69 69 70 67 67 65 66 66 63 61 65 64
74 72 71 68 68 70 71 71 70 70 70 70 70 68 67 66 66 65 64 64 64 63
73 70 70 66 68 70 70 71 70 70 70 69 68 67 66 65 65 63 61 62 63 62
70 68 66 67 69 71 71 70 70 68 67 66 66 65 64 62 61 59 58 58 60 60
69 67 65 69 71 71 71 69 65 64 64 62 61 59 58 57 56 55 54 54 55 57
68 69 71 71 71 69 67 63 61 59 58 57 56 52 53 52 52 53 53 54 53 53
69 70 71 69 66 64 61 60 58 57 57 55 49 52 51 50 50 52 52 51 52 50
70 69 68 66 63 61 59 58 56 55 54 54 52 51 50 49 50 49 50 51 51 46
70 68 68 65 62 59 58 57 54 52 53 53 50 50 50 49 49 49 50 51 50 50
70 68 67 64 61 58 56 55 52 52 53 52 52 50 49 50 47 47 49 50 50 50
70 68 66 64 61 58 56 53 47 49 51 50 51 50 49 49 44 47 44 48 50 47
68 66 64 62 59 57 55 52 51 50 50 51 51 50 48 48 48 44 44 44 44 45

GFSNIL_sfc_dewp_288.txt.gz
Dewpoint
75 70 70 71 69 65 60 62 70 68 68 69 69 68 69 65 64 67 64 66 65 60
75 73 71 73 70 64 65 67 70 69 69 70 69 68 68 65 67 67 66 63 64 60
73 75 74 72 70 67 69 70 71 70 69 70 70 69 69 66 67 67 63 59 64 63
72 75 73 70 68 70 71 72 71 72 71 69 69 69 69 68 67 66 64 63 63 63
75 74 74 69 67 69 71 72 73 72 70 69 68 68 67 66 65 63 62 62 62 62
74 72 70 67 69 70 72 72 70 70 70 68 67 66 64 63 62 61 60 58 59 58
71 72 70 68 70 71 72 71 70 69 68 65 62 61 60 59 58 56 55 55 56 55
69 70 71 71 72 71 70 69 67 65 62 60 57 51 56 53 54 55 55 55 53 52
68 69 71 72 70 69 68 65 64 62 61 57 49 52 51 52 53 55 54 52 52 51
69 68 70 68 68 67 65 64 61 60 58 56 53 51 51 50 49 50 52 52 51 46
68 69 68 67 67 66 64 61 59 57 57 54 51 51 50 52 50 52 53 52 52 51
70 69 68 67 66 64 62 59 57 56 56 53 52 49 49 52 49 51 52 52 52 52
71 69 68 67 66 63 61 57 51 53 54 53 52 49 49 51 45 50 46 51 53 47
70 70 68 66 64 62 58 56 54 53 53 53 53 51 47 49 51 44 44 44 45 46

GFSNIL_sfc_dewp_291.txt.gz
Dewpoint
75 71 69 72 69 63 60 63 70 69 69 69 69 68 69 66 64 68 65 65 66 61
75 73 72 73 71 63 66 68 70 69 68 68 68 68 69 66 67 69 66 65 64 62
73 74 74 73 71 68 69 71 71 70 68 68 71 70 71 68 68 68 62 59 64 64
72 73 74 71 68 69 71 72 72 71 71 68 69 70 70 68 67 64 63 63 63 63
73 75 71 70 68 69 71 72 72 72 71 70 70 69 67 64 63 62 61 60 61 60
73 72 71 69 68 69 72 74 72 73 71 69 67 64 62 63 62 60 57 57 58 57
75 73 70 70 71 71 73 72 71 70 69 66 62 62 60 59 57 56 56 56 56 55
75 75 74 71 74 73 72 70 69 67 64 61 57 50 58 55 56 57 56 55 53 53
73 73 72 71 72 71 70 68 67 64 62 58 48 52 53 55 55 55 55 53 52 51
71 70 70 70 69 68 67 66 65 62 60 57 53 51 52 55 51 51 53 54 53 46
70 70 69 68 67 66 66 64 63 60 59 56 52 51 51 53 52 53 53 53 53 53
70 70 69 67 67 66 65 63 61 59 58 54 52 49 50 53 50 52 53 53 52 52
71 70 69 68 68 66 64 61 56 56 56 54 52 49 50 53 47 51 46 53 55 53
70 70 69 68 68 65 62 60 58 56 55 53 53 51 47 50 53 45 46 44 45 47